EW5961 Weather Reports


time (UTC)temp
C
wind
direction
speed
KPH
gust
KPH
rain 1hr
cm
rain 24hr
cm
rain mn
cm
humidity
%
barometer
mb
20260510031509 31 38 9.7 17.7 0.00 0.00 0.00 63 1009.8
20260510030013 31 165 6.4 19.3 0.00 0.00 0.00 62 1009.6
20260510024504 31 122 11.3 19.3 0.00 0.00 0.00 61 1009.6
20260510023003 32 128 6.4 17.7 0.00 0.00 0.00 61 1009.3
20260510021502 32 49 16.1 25.7 0.00 0.00 0.00 61 1009.0
20260510020003 32 51 17.7 22.5 0.00 0.00 0.00 62 1008.8
20260510013001 32 56 20.9 29.0 0.00 0.00 0.00 61 1008.5
20260510011501 32 54 19.3 29.0 0.00 0.00 0.00 62 1008.0
20260510010104 32 15 11.3 24.1 0.00 0.00 0.00 61 1007.7
20260510004600 32 26 17.7 24.1 0.00 0.00 0.00 60 1007.3
20260510003101 33 360 19.3 29.0 0.00 0.00 0.00 58 1006.9
20260510001558 33 31 17.7 27.4 0.00 0.00 0.00 58 1006.7
20260510000058 34 44 17.7 30.6 0.00 0.00 0.00 56 1006.5
20260509234557 34 49 14.5 29.0 0.00 0.00 0.00 54 1006.1
20260509233057 35 16 22.5 35.4 0.00 0.00 0.00 52 1005.7
20260509231558 38 204 6.4 17.7 0.00 0.00 0.00 39 1005.5
20260509230059 38 132 6.4 19.3 0.00 0.00 0.00 39 1005.3
20260509224558 38 161 9.7 20.9 0.00 0.00 0.00 38 1005.1
20260509223053 38 216 3.2 16.1 0.00 0.00 0.00 39 1005.2
20260509221552 38 213 6.4 19.3 0.00 0.00 0.00 39 1005.3
20260509220054 38 146 11.3 22.5 0.00 0.00 0.00 38 1005.1
20260509214551 38 208 11.3 17.7 0.00 0.00 0.00 38 1005.2
20260509213111 38 200 4.8 22.5 0.00 0.00 0.00 38 1005.2
20260509211549 38 207 0.0 25.7 0.00 0.00 0.00 38 1005.2
20260509210100 38 150 6.4 20.9 0.00 0.00 0.00 39 1005.4
20260509204544 38 261 3.2 14.5 0.00 0.00 0.00 41 1005.6
20260509203043 38 115 11.3 19.3 0.00 0.00 0.00 40 1005.6
20260509201540 38 172 11.3 16.1 0.00 0.00 0.00 40 1005.9
20260509200038 38 107 14.5 22.5 0.00 0.00 0.00 41 1006.0
20260509194534 37 112 3.2 14.5 0.00 0.00 0.00 42 1006.1
20260509193030 37 117 14.5 22.5 0.00 0.00 0.00 43 1006.4
20260509191525 37 131 11.3 22.5 0.00 0.00 0.00 43 1006.7
20260509190025 37 155 12.9 27.4 0.00 0.00 0.00 44 1007.1
20260509184518 37 82 17.7 25.7 0.00 0.00 0.00 44 1007.2
20260509183116 36 148 17.7 30.6 0.00 0.00 0.00 44 1007.4
20260509181512 36 111 16.1 25.7 0.00 0.00 0.00 45 1007.6
20260509180010 36 119 11.3 27.4 0.00 0.00 0.00 47 1007.9
20260509174505 35 119 12.9 27.4 0.00 0.00 0.00 48 1008.2
20260509173002 35 156 20.9 30.6 0.00 0.00 0.00 49 1008.4
20260509171559 35 157 12.9 27.4 0.00 0.00 0.00 51 1008.6
20260509170056 34 147 17.7 29.0 0.00 0.00 0.00 52 1008.9
20260509164552 33 136 19.3 29.0 0.00 0.00 0.00 53 1009.0
20260509163049 33 144 12.9 24.1 0.00 0.00 0.00 56 1009.2
20260509161544 33 171 12.9 29.0 0.00 0.00 0.00 58 1009.5
20260509160041 32 153 20.9 33.8 0.00 0.00 0.00 59 1009.6
20260509154543 32 27 19.3 35.4 0.00 0.00 0.00 61 1009.8
20260509153041 32 140 22.5 33.8 0.00 0.00 0.00 60 1009.7
20260509151530 31 148 22.5 35.4 0.00 0.00 0.00 62 1009.9
20260509150026 31 155 22.5 33.8 0.00 0.00 0.00 65 1009.9
20260509144526 30 138 20.9 35.4 0.00 0.00 0.00 69 1010.1
20260509143018 30 138 25.7 37.0 0.00 0.00 0.00 71 1010.2
20260509141515 29 152 25.7 40.2 0.00 0.00 0.00 72 1010.3
20260509140011 28 131 25.7 40.2 0.00 0.00 0.00 75 1009.9
20260509134506 28 142 25.7 43.5 0.00 0.00 0.00 77 1010.0
20260509133003 27 128 25.7 37.0 0.00 0.00 0.00 80 1010.2
20260509130056 26 107 19.3 33.8 0.00 0.00 0.00 85 1010.3
20260509124552 25 141 19.3 29.0 0.00 0.00 0.00 86 1010.2
20260509123049 25 136 17.7 27.4 0.00 0.00 0.00 87 1010.1
20260509121546 25 126 16.1 24.1 0.00 0.00 0.00 87 1010.0
20260509120057 25 142 14.5 22.5 0.00 0.00 0.00 87 1009.7
20260509114541 25 140 11.3 20.9 0.00 0.00 0.00 87 1009.7
20260509113039 25 136 12.9 19.3 0.00 0.00 0.00 87 1009.1
20260509111538 25 115 14.5 20.9 0.00 0.00 0.00 86 1008.9
20260509110043 25 137 11.3 19.3 0.00 0.00 0.00 86 1008.8
20260509104536 25 144 11.3 22.5 0.00 0.00 0.00 86 1008.8
20260509103037 25 151 11.3 19.3 0.00 0.00 0.00 85 1008.5
20260509101634 25 150 14.5 25.7 0.00 0.00 0.00 85 1008.4
20260509100035 25 126 12.9 20.9 0.00 0.00 0.00 84 1008.2
20260509094531 25 144 12.9 19.3 0.00 0.00 0.00 84 1008.0
20260509093029 25 123 11.3 17.7 0.00 0.00 0.00 83 1008.2
20260509091532 25 143 14.5 19.3 0.00 0.00 0.00 83 1008.3
20260509090025 25 138 11.3 19.3 0.00 0.00 0.00 82 1008.6
20260509084528 25 153 4.8 19.3 0.00 0.00 0.00 82 1008.7
20260509083020 25 141 8.0 16.1 0.00 0.00 0.00 81 1008.6
20260509081519 26 152 11.3 20.9 0.00 0.00 0.00 81 1008.6
20260509080017 26 132 14.5 22.5 0.00 0.00 0.00 80 1008.6
20260509074515 26 130 11.3 22.5 0.00 0.00 0.00 80 1008.7
20260509073021 26 127 16.1 24.1 0.00 0.00 0.00 79 1008.8
20260509071509 26 118 16.1 29.0 0.00 0.00 0.00 78 1008.6
20260509070006 26 119 14.5 29.0 0.00 0.00 0.00 77 1008.8
20260509064604 27 147 16.1 24.1 0.00 0.00 0.00 76 1008.9
20260509063001 27 121 20.9 33.8 0.00 0.00 0.00 75 1009.3
20260509061602 27 126 16.1 29.0 0.00 0.00 0.00 74 1009.5
20260509060157 27 138 17.7 29.0 0.00 0.00 0.00 73 1009.7
20260509054612 27 117 17.7 27.4 0.00 0.00 0.00 72 1010.1
20260509053100 27 134 19.3 32.2 0.00 0.00 0.00 72 1009.9
20260509051556 28 117 12.9 27.4 0.00 0.00 0.00 71 1009.9
20260509050057 28 135 14.5 32.2 0.00 0.00 0.00 70 1009.8
20260509044554 28 139 17.7 30.6 0.00 0.00 0.00 70 1009.9
20260509043054 28 138 20.9 33.8 0.00 0.00 0.00 68 1010.0
20260509041555 28 123 22.5 33.8 0.00 0.00 0.00 66 1009.8
20260509040121 29 29 11.3 29.0 0.00 0.00 0.00 66 1009.7
20260509034557 29 127 30.6 38.6 0.00 0.00 0.00 65 1009.4
20260509033052 30 119 17.7 33.8 0.00 0.00 0.00 63 1009.3